IZ2NAI-3 Weather Reports


time (UTC)temp
C
wind
direction
speed
KPH
gust
KPH
rain 1hr
cm
rain 24hr
cm
rain mn
cm
humidity
%
barometer
mb
20260503053005 12 243 0.0 3.2 0.00 0.00 0.00 81 1019.3
20260503052005 11 0 0.0 0.0 0.00 0.00 0.00 83 1019.3
20260503051505 11 0 0.0 0.0 0.00 0.00 0.00 83 1019.3
20260503051005 11 0 0.0 0.0 0.00 0.00 0.00 84 1019.3
20260503050505 10 0 0.0 0.0 0.00 0.00 0.00 84 1019.2
20260503050005 10 0 0.0 0.0 0.00 0.00 0.00 85 1019.1
20260503045505 10 0 0.0 0.0 0.00 0.00 0.00 86 1019.2
20260503045005 10 0 0.0 0.0 0.00 0.00 0.00 85 1019.3
20260503044505 10 249 0.0 3.2 0.00 0.00 0.00 85 1019.4
20260503044005 10 249 1.6 3.2 0.00 0.00 0.00 86 1019.3
20260503043505 10 249 3.2 6.4 0.00 0.00 0.00 86 1019.3
20260503042506 9 0 0.0 0.0 0.00 0.00 0.00 85 1019.3
20260503042005 9 0 0.0 0.0 0.00 0.00 0.00 85 1019.3
20260503041505 9 0 0.0 0.0 0.00 0.00 0.00 85 1019.3
20260503041005 8 0 0.0 0.0 0.00 0.00 0.00 84 1019.2
20260503040005 9 0 0.0 0.0 0.00 0.00 0.00 84 1019.1
20260503035505 9 0 0.0 0.0 0.00 0.00 0.00 83 1019.0
20260503035005 9 0 0.0 0.0 0.00 0.00 0.00 83 1018.8
20260503034005 9 0 0.0 0.0 0.00 0.00 0.00 83 1018.9
20260503033005 10 0 0.0 0.0 0.00 0.00 0.00 81 1018.8
20260503032505 10 0 0.0 0.0 0.00 0.00 0.00 81 1018.8
20260503032005 10 0 0.0 0.0 0.00 0.00 0.00 81 1018.9
20260503031505 10 0 0.0 0.0 0.00 0.00 0.00 81 1018.9
20260503031005 10 251 0.0 3.2 0.00 0.00 0.00 81 1018.9
20260503030506 10 251 1.6 3.2 0.00 0.00 0.00 80 1018.9
20260503030005 10 252 3.2 6.4 0.00 0.00 0.00 80 1019.0
20260503025505 10 252 1.6 6.4 0.00 0.00 0.00 79 1019.0
20260503025005 10 0 0.0 0.0 0.00 0.00 0.00 79 1018.9
20260503024505 10 0 0.0 0.0 0.00 0.00 0.00 78 1018.9
20260503024005 10 0 0.0 0.0 0.00 0.00 0.00 78 1019.0
20260503023505 10 0 0.0 0.0 0.00 0.00 0.00 78 1019.0
20260503022505 10 0 0.0 0.0 0.00 0.00 0.00 79 1019.1
20260503022005 10 0 0.0 0.0 0.00 0.00 0.00 79 1019.2
20260503021505 11 0 0.0 0.0 0.00 0.00 0.00 78 1019.2
20260503021005 11 0 0.0 0.0 0.00 0.00 0.00 78 1019.1
20260503020005 11 0 0.0 0.0 0.00 0.00 0.00 77 1019.3
20260503015505 11 0 0.0 0.0 0.00 0.00 0.00 77 1019.3
20260503015005 11 0 0.0 0.0 0.00 0.00 0.00 75 1019.2
20260503014505 11 0 0.0 0.0 0.00 0.00 0.00 75 1019.2
20260503014005 11 0 0.0 0.0 0.00 0.00 0.00 75 1019.2
20260503013505 11 0 0.0 0.0 0.00 0.00 0.00 74 1019.2
20260503012005 11 0 0.0 0.0 0.00 0.00 0.00 74 1019.4
20260503011506 11 0 0.0 0.0 0.00 0.00 0.00 73 1019.5
20260503011005 12 0 0.0 0.0 0.00 0.00 0.00 73 1019.5
20260503010506 12 0 0.0 0.0 0.00 0.00 0.00 72 1019.6
20260503010005 12 0 0.0 0.0 0.00 0.00 0.00 73 1019.6
20260503005505 12 0 0.0 0.0 0.00 0.00 0.00 72 1019.6
20260503005005 12 0 0.0 0.0 0.00 0.00 0.00 71 1019.5
20260503004505 12 0 0.0 0.0 0.00 0.00 0.00 71 1019.6
20260503004005 12 0 0.0 0.0 0.00 0.00 0.00 71 1019.6
20260503003005 12 343 3.2 4.8 0.00 0.00 0.00 70 1019.7
20260503002505 12 337 3.2 4.8 0.00 0.00 0.00 70 1019.8
20260503002005 12 330 3.2 4.8 0.00 0.00 0.00 69 1019.9
20260503001005 13 340 3.2 6.4 0.00 0.00 0.00 68 1020.0
20260503000006 13 303 3.2 6.4 0.00 0.00 0.00 68 1020.1
20260502235505 13 294 4.8 8.0 0.00 0.00 0.00 67 1020.2
20260502235005 13 292 4.8 8.0 0.00 0.00 0.00 68 1020.2
20260502234505 13 291 3.2 6.4 0.00 0.00 0.00 69 1020.2
20260502234005 13 305 4.8 6.4 0.00 0.00 0.00 69 1020.2
20260502233005 13 317 3.2 8.0 0.00 0.00 0.00 71 1020.2
20260502232505 13 306 0.0 6.4 0.00 0.00 0.00 71 1020.1
20260502232005 13 0 0.0 0.0 0.00 0.00 0.00 71 1020.1
20260502231505 13 0 0.0 0.0 0.00 0.00 0.00 69 1020.1
20260502231005 13 0 0.0 0.0 0.00 0.00 0.00 69 1020.1
20260502230505 13 0 0.0 0.0 0.00 0.00 0.00 69 1020.2
20260502230005 13 0 0.0 0.0 0.00 0.00 0.00 68 1020.2
20260502225505 13 0 0.0 0.0 0.00 0.00 0.00 69 1020.2
20260502225005 13 0 0.0 0.0 0.00 0.00 0.00 69 1020.2
20260502224505 13 0 0.0 0.0 0.00 0.00 0.00 68 1020.3
20260502224006 13 0 0.0 0.0 0.00 0.00 0.00 68 1020.3
20260502223505 13 184 0.0 3.2 0.00 0.00 0.00 68 1020.3
20260502223005 14 183 0.0 4.8 0.00 0.00 0.00 66 1020.4
20260502222505 14 183 0.0 4.8 0.00 0.00 0.00 66 1020.5
20260502222005 14 186 0.0 3.2 0.00 0.00 0.00 66 1020.5
20260502221006 15 186 0.0 3.2 0.00 0.00 0.00 63 1020.5
20260502220009 15 184 0.0 3.2 0.00 0.00 0.00 63 1020.4
20260502214506 15 185 1.6 4.8 0.00 0.00 0.00 63 1020.4
20260502213506 15 179 3.2 4.8 0.00 0.00 0.00 64 1020.4
20260502213005 15 177 3.2 4.8 0.00 0.00 0.00 64 1020.3
20260502212506 14 176 3.2 6.4 0.00 0.00 0.00 64 1020.3
20260502212005 15 175 3.2 6.4 0.00 0.00 0.00 64 1020.4
20260502211505 15 174 1.6 4.8 0.00 0.00 0.00 64 1020.4
20260502211005 15 173 0.0 3.2 0.00 0.00 0.00 64 1020.4
20260502210005 15 152 1.6 3.2 0.00 0.00 0.00 63 1020.4
20260502205506 15 163 1.6 4.8 0.00 0.00 0.00 63 1020.5
20260502205006 15 177 3.2 4.8 0.00 0.00 0.00 61 1020.5
20260502204505 15 184 3.2 4.8 0.00 0.00 0.00 60 1020.5
20260502204005 16 184 1.6 4.8 0.00 0.00 0.00 60 1020.5
20260502203505 16 159 1.6 4.8 0.00 0.00 0.00 60 1020.7
20260502203005 16 157 1.6 4.8 0.00 0.00 0.00 60 1020.6
20260502202505 16 171 0.0 3.2 0.00 0.00 0.00 59 1020.6
20260502202006 17 179 1.6 4.8 0.00 0.00 0.00 56 1020.7
20260502201506 17 184 1.6 4.8 0.00 0.00 0.00 54 1020.7
20260502201006 17 184 1.6 4.8 0.00 0.00 0.00 53 1020.7
20260502200505 17 188 3.2 4.8 0.00 0.00 0.00 53 1020.7
20260502200005 17 189 3.2 6.4 0.00 0.00 0.00 53 1020.7
20260502195005 18 191 3.2 4.8 0.00 0.00 0.00 52 1020.7
20260502194506 18 189 3.2 6.4 0.00 0.00 0.00 52 1020.7
20260502194005 18 189 3.2 6.4 0.00 0.00 0.00 52 1020.7
20260502193505 18 186 3.2 6.4 0.00 0.00 0.00 52 1020.6
20260502193005 18 183 3.2 4.8 0.00 0.00 0.00 51 1020.6
20260502192505 18 182 1.6 4.8 0.00 0.00 0.00 50 1020.5
20260502192005 18 178 1.6 4.8 0.00 0.00 0.00 50 1020.5
20260502191505 19 183 3.2 6.4 0.00 0.00 0.00 50 1020.5
20260502191006 19 188 3.2 6.4 0.00 0.00 0.00 49 1020.4
20260502190505 19 188 3.2 6.4 0.00 0.00 0.00 48 1020.4
20260502190005 19 182 3.2 6.4 0.00 0.00 0.00 47 1020.4
20260502185505 20 181 3.2 4.8 0.00 0.00 0.00 46 1020.3
20260502185005 20 181 3.2 4.8 0.00 0.00 0.00 46 1020.4
20260502184506 20 181 1.6 4.8 0.00 0.00 0.00 46 1020.3
20260502184006 20 178 1.6 4.8 0.00 0.00 0.00 46 1020.3
20260502183505 20 181 1.6 4.8 0.00 0.00 0.00 45 1020.4
20260502183005 21 189 1.6 4.8 0.00 0.00 0.00 44 1020.3
20260502182505 21 190 1.6 4.8 0.00 0.00 0.00 43 1020.3
20260502182005 21 187 1.6 4.8 0.00 0.00 0.00 42 1020.3
20260502181005 22 188 1.6 4.8 0.00 0.00 0.00 40 1020.3
20260502170505 24 215 3.2 6.4 0.00 0.00 0.00 34 1020.3
20260502164005 24 227 3.2 8.0 0.00 0.00 0.00 34 1020.6
20260502163505 24 191 3.2 11.3 0.00 0.00 0.00 35 1020.5
20260502163005 24 177 3.2 11.3 0.00 0.00 0.00 34 1020.7
20260502162506 24 196 3.2 11.3 0.00 0.00 0.00 32 1020.6
20260502162006 25 207 3.2 11.3 0.00 0.00 0.00 33 1020.7
20260502161505 25 243 3.2 9.7 0.00 0.00 0.00 33 1020.7
20260502161005 25 235 3.2 9.7 0.00 0.00 0.00 31 1020.7
20260502160505 25 228 3.2 8.0 0.00 0.00 0.00 33 1020.7
20260502152005 25 206 3.2 11.3 0.00 0.00 0.00 33 1021.3
20260502150505 25 234 4.8 9.7 0.00 0.00 0.00 32 1021.4
20260502130505 25 205 6.4 12.9 0.00 0.00 0.00 33 1023.0
20260502123505 24 206 4.8 12.9 0.00 0.00 0.00 31 1023.4
20260502123005 24 224 4.8 14.5 0.00 0.00 0.00 33 1023.5
20260502122505 24 213 6.4 19.3 0.00 0.00 0.00 32 1023.4
20260502121005 24 239 6.4 14.5 0.00 0.00 0.00 33 1023.6
20260502120505 24 231 4.8 14.5 0.00 0.00 0.00 33 1023.7
20260502115505 24 209 8.0 19.3 0.00 0.00 0.00 33 1023.8
20260502115005 24 200 9.7 19.3 0.00 0.00 0.00 36 1023.9
20260502114505 24 206 6.4 19.3 0.00 0.00 0.00 34 1024.0
20260502114005 24 233 4.8 12.9 0.00 0.00 0.00 32 1024.0
20260502113505 24 216 6.4 12.9 0.00 0.00 0.00 33 1024.1
20260502113005 24 204 8.0 17.7 0.00 0.00 0.00 34 1024.2
20260502112006 24 220 4.8 16.1 0.00 0.00 0.00 33 1024.2
20260502111506 24 253 4.8 16.1 0.00 0.00 0.00 36 1024.4
20260502111005 23 228 6.4 16.1 0.00 0.00 0.00 34 1024.4
20260502110505 24 210 6.4 16.1 0.00 0.00 0.00 34 1024.5
20260502110005 23 215 4.8 14.5 0.00 0.00 0.00 37 1024.4
20260502105506 23 232 6.4 14.5 0.00 0.00 0.00 34 1024.5
20260502105006 23 265 6.4 14.5 0.00 0.00 0.00 37 1024.6
20260502103505 23 257 6.4 12.9 0.00 0.00 0.00 36 1024.8
20260502103005 23 241 4.8 12.9 0.00 0.00 0.00 33 1024.9
20260502102005 23 258 8.0 14.5 0.00 0.00 0.00 33 1025.0
20260502101505 23 259 6.4 14.5 0.00 0.00 0.00 34 1025.0
20260502101005 23 244 3.2 14.5 0.00 0.00 0.00 35 1025.2
20260502100505 23 235 3.2 8.0 0.00 0.00 0.00 33 1025.2
20260502091505 22 238 4.8 9.7 0.00 0.00 0.00 35 1025.7
20260502091005 22 232 4.8 9.7 0.00 0.00 0.00 37 1025.7
20260502090505 21 245 4.8 9.7 0.00 0.00 0.00 39 1025.7
20260502071505 17 312 3.2 6.4 0.00 0.00 0.00 61 1026.2
20260502071006 17 318 3.2 6.4 0.00 0.00 0.00 62 1026.2
20260502070505 16 298 3.2 6.4 0.00 0.00 0.00 62 1026.4
20260502070005 16 286 3.2 6.4 0.00 0.00 0.00 63 1026.3
20260502065505 16 298 3.2 6.4 0.00 0.00 0.00 65 1026.3
20260502065005 15 311 3.2 6.4 0.00 0.00 0.00 65 1026.3
20260502064505 15 310 1.6 6.4 0.00 0.00 0.00 66 1026.3
20260502064005 15 300 1.6 4.8 0.00 0.00 0.00 68 1026.4
20260502063505 15 287 1.6 4.8 0.00 0.00 0.00 68 1026.5
20260502063005 15 265 1.6 6.4 0.00 0.00 0.00 69 1026.5
20260502062006 14 286 3.2 6.4 0.00 0.00 0.00 69 1026.4
20260502061506 13 272 3.2 8.0 0.00 0.00 0.00 69 1026.5
20260502061005 13 266 3.2 8.0 0.00 0.00 0.00 69 1026.4
20260502060505 13 264 3.2 6.4 0.00 0.00 0.00 71 1026.3
20260502055505 12 259 3.2 8.0 0.00 0.00 0.00 72 1026.3
20260502055005 12 265 3.2 8.0 0.00 0.00 0.00 72 1026.3
20260502054505 12 270 3.2 6.4 0.00 0.00 0.00 73 1026.3
20260502054005 12 272 3.2 6.4 0.00 0.00 0.00 73 1026.4